�������l�o���
Date,Time,MP-1(��Sv/h),MP-2(��Sv/h),MP-3(��Sv/h),MP-4(��Sv/h),MP-5(��Sv/h),MP-6(��Sv/h),MP-7(��Sv/h),MP-8(��Sv/h),����,����(m/s),���J
2022/01/23,00:00,0.584,0.874,0.556,1.074,0.754,0.350,0.610,0.580,�k�k��,4.0,��
2022/01/23,00:10,0.581,0.874,0.555,1.080,0.752,0.350,0.611,0.581,�k�k��,3.8,��
2022/01/23,00:20,0.583,0.875,0.555,1.079,0.753,0.351,0.610,0.580,�k�k��,3.2,��
2022/01/23,00:30,0.583,0.876,0.557,1.078,0.755,0.350,0.610,0.579,�k�k��,3.2,��
2022/01/23,00:40,0.584,0.877,0.555,1.079,0.753,0.350,0.610,0.582,�k�k��,2.6,��
2022/01/23,00:50,0.583,0.875,0.554,1.078,0.753,0.350,0.611,0.580,�k�k��,2.0,��
2022/01/23,01:00,0.582,0.874,0.556,1.076,0.754,0.350,0.611,0.579,�k�k��,1.7,��
2022/01/23,01:10,0.582,0.876,0.555,1.079,0.752,0.350,0.611,0.581,�k�k��,1.7,��
2022/01/23,01:20,0.582,0.874,0.554,1.078,0.752,0.349,0.610,0.578,�k�k��,1.5,��
2022/01/23,01:30,0.583,0.874,0.554,1.076,0.755,0.350,0.611,0.581,�k�k��,1.5,��
2022/01/23,01:40,0.581,0.875,0.554,1.078,0.754,0.350,0.610,0.580,�k�k��,2.2,��
2022/01/23,01:50,0.582,0.874,0.554,1.079,0.753,0.350,0.610,0.580,�k,2.0,��
2022/01/23,02:00,0.583,0.875,0.556,1.077,0.754,0.351,0.611,0.579,�k�k��,2.3,��
2022/01/23,02:10,0.582,0.874,0.556,1.077,0.754,0.350,0.612,0.580,�k�k��,2.6,��
2022/01/23,02:20,0.582,0.874,0.554,1.079,0.754,0.349,0.609,0.581,�k,2.6,��
2022/01/23,02:30,0.580,0.874,0.555,1.078,0.754,0.350,0.610,0.581,�k,2.3,��
2022/01/23,02:40,0.582,0.875,0.554,1.076,0.753,0.351,0.611,0.580,�k,2.6,��
2022/01/23,02:50,0.581,0.873,0.555,1.076,0.754,0.350,0.610,0.580,�k,2.0,��
2022/01/23,03:00,0.582,0.875,0.553,1.078,0.753,0.349,0.611,0.579,�k,2.0,��
2022/01/23,03:10,0.582,0.877,0.554,1.079,0.752,0.349,0.610,0.579,�k,2.0,��
2022/01/23,03:20,0.583,0.875,0.554,1.078,0.754,0.350,0.609,0.580,�k,1.9,��
2022/01/23,03:30,0.583,0.874,0.554,1.076,0.754,0.350,0.610,0.579,�k,0.6,��
2022/01/23,03:40,0.581,0.875,0.556,1.078,0.753,0.350,0.611,0.580,�k��,1.1,��
2022/01/23,03:50,0.582,0.875,0.555,1.078,0.753,0.350,0.611,0.579,���쐼,1.2,��
2022/01/23,04:00,0.582,0.874,0.555,1.078,0.754,0.350,0.609,0.580,�쐼,1.2,��
2022/01/23,04:10,0.582,0.876,0.554,1.078,0.753,0.349,0.609,0.580,��,2.0,��
2022/01/23,04:20,0.582,0.874,0.554,1.077,0.753,0.351,0.609,0.582,��,3.2,��
2022/01/23,04:30,0.582,0.874,0.553,1.077,0.753,0.350,0.610,0.579,��,3.1,��
2022/01/23,04:40,0.581,0.874,0.556,1.077,0.752,0.350,0.612,0.580,��,2.3,��
2022/01/23,04:50,0.582,0.874,0.555,1.077,0.752,0.351,0.611,0.580,��,1.9,��
2022/01/23,05:00,0.582,0.873,0.553,1.078,0.752,0.350,0.611,0.578,���k��,1.4,��
2022/01/23,05:10,0.582,0.875,0.554,1.079,0.754,0.351,0.611,0.580,���k��,2.0,��
2022/01/23,05:20,0.583,0.874,0.556,1.078,0.752,0.350,0.612,0.580,�k��,4.4,��
2022/01/23,05:30,0.583,0.873,0.554,1.078,0.752,0.351,0.610,0.580,�k��,6.9,��
2022/01/23,05:40,0.583,0.876,0.555,1.078,0.752,0.350,0.611,0.581,���k��,6.8,��
2022/01/23,05:50,0.583,0.874,0.556,1.079,0.753,0.350,0.612,0.580,���k��,5.7,��
2022/01/23,06:00,0.582,0.875,0.555,1.078,0.754,0.350,0.610,0.581,�k��,5.8,��
2022/01/23,06:10,0.581,0.875,0.557,1.079,0.753,0.349,0.611,0.580,�k��,5.2,��
2022/01/23,06:20,0.583,0.876,0.555,1.078,0.753,0.351,0.613,0.579,���k��,3.8,��
2022/01/23,06:30,0.583,0.875,0.557,1.077,0.754,0.350,0.612,0.580,���k��,2.6,��
2022/01/23,06:40,0.583,0.874,0.555,1.077,0.752,0.350,0.611,0.580,���k��,3.4,��
2022/01/23,06:50,0.584,0.874,0.555,1.078,0.751,0.351,0.612,0.580,���k��,2.6,��
2022/01/23,07:00,0.584,0.876,0.556,1.076,0.752,0.351,0.611,0.579,���k��,2.6,��
2022/01/23,07:10,0.583,0.874,0.554,1.081,0.755,0.351,0.610,0.579,���k��,2.8,��
2022/01/23,07:20,0.581,0.874,0.556,1.077,0.751,0.350,0.613,0.580,�k��,2.6,��
2022/01/23,07:30,0.583,0.876,0.554,1.076,0.753,0.350,0.611,0.580,�k�k��,2.8,��
2022/01/23,07:40,0.583,0.875,0.555,1.078,0.751,0.351,0.611,0.580,�k��,4.1,��
2022/01/23,07:50,0.582,0.876,0.555,1.079,0.752,0.350,0.610,0.580,�k��,4.8,��
2022/01/23,08:00,0.585,0.875,0.555,1.078,0.753,0.351,0.610,0.581,�k��,3.4,��
2022/01/23,08:10,0.582,0.874,0.556,1.076,0.754,0.349,0.612,0.580,�k��,3.0,��
2022/01/23,08:20,0.583,0.875,0.554,1.078,0.752,0.350,0.610,0.580,��,3.3,��
2022/01/23,08:30,0.583,0.874,0.556,1.080,0.752,0.351,0.612,0.582,��,4.4,��
2022/01/23,08:40,0.584,0.876,0.554,1.078,0.751,0.353,0.614,0.580,��,3.0,��
2022/01/23,08:50,0.582,0.876,0.555,1.079,0.753,0.351,0.613,0.580,��,3.0,��
2022/01/23,09:00,0.584,0.876,0.554,1.077,0.754,0.351,0.611,0.581,��,2.3,��
2022/01/23,09:10,0.583,0.878,0.555,1.077,0.753,0.351,0.612,0.580,�k��,1.5,��
2022/01/23,09:20,0.582,0.876,0.556,1.077,0.752,0.348,0.613,0.579,�k�k��,1.9,��
2022/01/23,09:30,0.585,0.879,0.557,1.080,0.752,0.347,0.612,0.581,�k��,2.8,��
2022/01/23,09:40,0.584,0.877,0.556,1.076,0.754,0.347,0.612,0.580,�k��,3.7,��
2022/01/23,09:50,0.584,0.878,0.557,1.082,0.754,0.348,0.612,0.581,�k��,4.7,��
2022/01/23,10:00,0.587,0.877,0.557,1.080,0.753,0.348,0.612,0.580,�k��,5.5,��
2022/01/23,10:10,0.585,0.877,0.559,1.078,0.757,0.348,0.612,0.580,�k�k��,6.0,��
2022/01/23,10:20,0.587,0.878,0.557,1.079,0.755,0.348,0.611,0.580,�k��,3.3,��
2022/01/23,10:30,0.587,0.875,0.557,1.081,0.754,0.347,0.610,0.580,�k��,2.6,��
2022/01/23,10:40,0.587,0.874,0.556,1.078,0.755,0.348,0.611,0.582,�k��,3.0,��
2022/01/23,10:50,0.587,0.876,0.558,1.079,0.754,0.349,0.611,0.580,�k�k��,2.9,��
2022/01/23,11:00,0.586,0.876,0.558,1.079,0.757,0.349,0.610,0.582,�k,2.3,��
2022/01/23,11:10,0.587,0.876,0.557,1.080,0.757,0.349,0.610,0.580,�k,2.5,��
2022/01/23,11:20,0.588,0.876,0.558,1.080,0.755,0.348,0.610,0.582,���k��,1.5,��
2022/01/23,11:30,0.586,0.875,0.559,1.079,0.755,0.350,0.611,0.581,��,2.5,��
2022/01/23,11:40,0.585,0.877,0.558,1.079,0.756,0.348,0.611,0.582,�k��,2.6,��
2022/01/23,11:50,0.585,0.874,0.557,1.080,0.758,0.348,0.610,0.580,�k��,2.3,��
2022/01/23,12:00,0.585,0.877,0.557,1.079,0.757,0.347,0.611,0.580,���k��,3.1,��
2022/01/23,12:10,0.584,0.875,0.556,1.083,0.755,0.348,0.611,0.581,���k��,3.3,��
2022/01/23,12:20,0.585,0.874,0.557,1.082,0.756,0.349,0.610,0.581,�k��,3.1,��
2022/01/23,12:30,0.585,0.874,0.558,1.079,0.755,0.348,0.610,0.582,�k��,3.1,��
2022/01/23,12:40,0.585,0.878,0.557,1.080,0.756,0.347,0.612,0.582,�k�k��,3.2,��
2022/01/23,12:50,0.586,0.875,0.558,1.081,0.757,0.347,0.610,0.581,�k��,4.4,��
2022/01/23,13:00,0.586,0.875,0.559,1.080,0.755,0.348,0.609,0.582,�k��,5.2,��
2022/01/23,13:10,0.585,0.877,0.557,1.080,0.756,0.349,0.611,0.581,���k��,4.6,��
2022/01/23,13:20,0.586,0.878,0.558,1.082,0.756,0.348,0.612,0.583,�k��,4.7,��
2022/01/23,13:30,0.586,0.876,0.556,1.080,0.755,0.349,0.610,0.583,���k��,3.7,��
2022/01/23,13:40,0.587,0.878,0.556,1.080,0.755,0.349,0.611,0.581,���k��,2.6,��
2022/01/23,13:50,0.586,0.877,0.557,1.080,0.758,0.350,0.613,0.579,���k��,2.0,��
2022/01/23,14:00,0.585,0.876,0.558,1.080,0.757,0.349,0.613,0.578,���k��,2.6,��
2022/01/23,14:10,0.586,0.878,0.558,1.081,0.756,0.352,0.612,0.579,��,2.2,��
2022/01/23,14:20,0.586,0.876,0.558,1.080,0.755,0.352,0.612,0.579,���k��,2.0,��
2022/01/23,14:30,0.588,0.877,0.557,1.080,0.757,0.353,0.614,0.579,�k��,2.3,��
2022/01/23,14:40,0.586,0.877,0.559,1.082,0.758,0.353,0.613,0.580,���k��,2.6,��
2022/01/23,14:50,0.588,0.877,0.557,1.082,0.757,0.352,0.614,0.578,��,2.0,��
2022/01/23,15:00,0.587,0.877,0.557,1.080,0.757,0.353,0.615,0.581,��,2.3,��
2022/01/23,15:10,0.586,0.876,0.558,1.081,0.758,0.352,0.614,0.582,��,2.3,��
2022/01/23,15:20,0.587,0.878,0.558,1.082,0.759,0.352,0.615,0.583,���쓌,1.9,��
2022/01/23,15:30,0.587,0.880,0.557,1.082,0.758,0.353,0.613,0.580,���쓌,2.2,��
2022/01/23,15:40,0.587,0.880,0.559,1.080,0.758,0.353,0.614,0.580,�쓌,2.2,��
2022/01/23,15:50,0.586,0.878,0.560,1.080,0.757,0.353,0.613,0.581,�쓌,1.7,��
2022/01/23,16:00,0.586,0.879,0.558,1.080,0.756,0.352,0.614,0.580,���쓌,1.2,��
2022/01/23,16:10,0.586,0.879,0.560,1.082,0.759,0.351,0.616,0.581,�쓌,2.0,��
2022/01/23,16:20,0.586,0.878,0.557,1.080,0.757,0.352,0.613,0.582,�쓌,1.7,��
2022/01/23,16:30,0.587,0.878,0.557,1.079,0.756,0.352,0.612,0.581,��쓌,1.7,��
2022/01/23,16:40,0.585,0.879,0.557,1.078,0.758,0.353,0.613,0.580,�쓌,2.3,��
2022/01/23,16:50,0.588,0.879,0.557,1.081,0.758,0.352,0.613,0.581,��쓌,2.8,��
2022/01/23,17:00,0.587,0.880,0.558,1.080,0.758,0.353,0.612,0.581,��쓌,2.0,��
2022/01/23,17:10,0.585,0.879,0.557,1.081,0.757,0.353,0.614,0.581,��쓌,2.3,��
2022/01/23,17:20,0.586,0.878,0.557,1.079,0.757,0.352,0.613,0.581,��쓌,2.2,��
2022/01/23,17:30,0.586,0.879,0.558,1.080,0.757,0.352,0.613,0.581,��,2.5,��
2022/01/23,17:40,0.586,0.879,0.558,1.081,0.757,0.352,0.612,0.580,��,2.6,��
2022/01/23,17:50,0.586,0.877,0.558,1.081,0.758,0.352,0.612,0.581,��쓌,2.9,��
2022/01/23,18:00,0.587,0.880,0.557,1.080,0.757,0.352,0.612,0.580,��쓌,4.0,��
2022/01/23,18:10,0.586,0.880,0.558,1.079,0.759,0.352,0.613,0.580,��쓌,4.0,��
2022/01/23,18:20,0.585,0.878,0.557,1.080,0.757,0.352,0.612,0.582,��,3.9,��
2022/01/23,18:30,0.586,0.879,0.558,1.081,0.758,0.352,0.613,0.582,��,3.7,��
2022/01/23,18:40,0.586,0.878,0.558,1.081,0.758,0.353,0.613,0.580,��,3.8,��
2022/01/23,18:50,0.587,0.876,0.558,1.082,0.757,0.352,0.613,0.581,��,4.3,��
2022/01/23,19:00,0.586,0.879,0.557,1.080,0.756,0.352,0.612,0.579,��,4.1,��
2022/01/23,19:10,0.585,0.877,0.557,1.080,0.758,0.352,0.612,0.579,��,4.0,��
2022/01/23,19:20,0.584,0.876,0.557,1.079,0.757,0.352,0.614,0.579,��쐼,4.0,��
2022/01/23,19:30,0.587,0.878,0.558,1.082,0.758,0.351,0.613,0.580,��,4.5,��
2022/01/23,19:40,0.586,0.878,0.558,1.081,0.757,0.352,0.613,0.581,��,4.5,��
2022/01/23,19:50,0.586,0.876,0.557,1.081,0.758,0.353,0.612,0.581,��,4.7,��
2022/01/23,20:00,0.588,0.877,0.557,1.080,0.758,0.352,0.613,0.580,��,4.7,��
2022/01/23,20:10,0.585,0.878,0.555,1.081,0.757,0.353,0.612,0.581,��,5.4,��
2022/01/23,20:20,0.587,0.879,0.559,1.081,0.756,0.353,0.613,0.580,��,6.0,��
2022/01/23,20:30,0.587,0.878,0.557,1.082,0.759,0.352,0.613,0.581,��,6.1,��
2022/01/23,20:40,0.585,0.879,0.557,1.080,0.758,0.353,0.613,0.579,��,6.1,��
2022/01/23,20:50,0.587,0.881,0.558,1.081,0.759,0.352,0.613,0.579,��,6.1,��
2022/01/23,21:00,0.587,0.876,0.558,1.079,0.759,0.354,0.614,0.580,��,5.4,��
2022/01/23,21:10,0.585,0.879,0.560,1.081,0.757,0.352,0.613,0.581,��,5.7,��
2022/01/23,21:20,0.585,0.877,0.559,1.081,0.758,0.352,0.613,0.580,��,5.1,��
2022/01/23,21:30,0.587,0.879,0.560,1.081,0.758,0.351,0.613,0.580,��,4.6,��
2022/01/23,21:40,0.586,0.878,0.558,1.081,0.759,0.352,0.614,0.581,��,4.5,��
2022/01/23,21:50,0.588,0.879,0.558,1.079,0.758,0.352,0.614,0.580,��,4.6,��
2022/01/23,22:00,0.589,0.878,0.558,1.080,0.758,0.352,0.614,0.583,��쐼,4.1,��
2022/01/23,22:10,0.588,0.879,0.559,1.082,0.760,0.354,0.614,0.581,��쐼,3.8,��
2022/01/23,22:20,0.587,0.878,0.556,1.081,0.758,0.352,0.614,0.581,��쐼,2.3,��
2022/01/23,22:30,0.587,0.878,0.560,1.083,0.759,0.352,0.614,0.580,��쐼,3.2,��
2022/01/23,22:40,0.585,0.879,0.559,1.081,0.758,0.353,0.614,0.581,��쐼,3.7,��
2022/01/23,22:50,0.586,0.878,0.559,1.080,0.757,0.353,0.612,0.580,��쐼,3.7,��
2022/01/23,23:00,0.586,0.877,0.558,1.081,0.756,0.354,0.613,0.581,��쐼,2.3,��
2022/01/23,23:10,0.586,0.879,0.559,1.081,0.757,0.354,0.614,0.582,��쐼,3.1,��
2022/01/23,23:20,0.585,0.880,0.559,1.080,0.758,0.351,0.614,0.580,��,3.5,��
2022/01/23,23:30,0.588,0.880,0.559,1.081,0.757,0.353,0.614,0.581,��,2.5,��
2022/01/23,23:40,0.588,0.880,0.557,1.080,0.758,0.353,0.614,0.581,��,2.6,��
2022/01/23,23:50,0.588,0.878,0.559,1.081,0.758,0.352,0.613,0.581,��쐼,2.3,��
